Location: Carrières
(48.9495°N, 2.0407°E)
Time: 19:43:08
(UTC+00:00)

Transit 2A - Pass Details

Date: 27 April 2024
Orbit: 594 x 957 km, 66.7° (Epoch: 18 May)

Event Time Altitude Azimuth Distance (km) Brightness Sun altitude
Rises 11:05:16 0° 326° (NW) 3,183 8.9 54.0°
Reaches altitude 10° 11:08:02 10° 341° (NNW) 2,323 8.3 54.1°
Maximum altitude 11:12:18 23° 34° (NE) 1,665 7.8 54.3°
Drops below altitude 10° 11:16:53 10° 86° (E) 2,512 8.9 54.5°
Sets 11:20:00 0° 100° (E) 3,505 9.6 54.6°
